Location: Vista Encantada
(35.1109°N, 106.5681°W)
Time: 12:45:13
(UTC+00:00)

Envisat - Visible Passes

Search period start: 20 September 2021 00:00
Search period end: 30 September 2021 00:00
Orbit: 764 x 766 km, 98.2° (Epoch: 20 September)

Date Brightness Start Highest point End Pass type
(mag) Time Alt. Az. Time Alt. Az. Time Alt. Az.
20 Sep 3.3 12:08:32 10° NNE 12:13:37 75° ESE 12:18:41 10° S visible
21 Sep 4.9 11:32:12 10° NE 11:36:41 31° E 11:41:08 10° SSE visible
22 Sep 6.0 10:57:19 10° ENE 10:59:34 13° E 11:01:47 10° ESE visible
23 Sep 3.7 11:57:06 10° NNE 12:02:06 57° E 12:07:05 10° S visible
24 Sep 5.4 11:21:03 10° NE 11:25:07 24° E 11:29:10 10° SSE visible
25 Sep 3.0 12:22:21 10° N 12:27:26 78° WNW 12:32:30 10° SSW visible
26 Sep 4.3 11:45:44 10° NNE 11:50:34 43° E 11:55:23 10° S visible
27 Sep 5.7 11:10:02 10° NE 11:13:31 18° E 11:16:59 10° SE visible
28 Sep 3.1 12:10:50 10° NNE 12:15:56 81° ESE 12:21:00 10° S visible
29 Sep 4.8 11:34:26 10° NNE 11:39:01 33° E 11:43:34 10° SSE visible
